Joplin, MO

6:53 AM CST on November 15, 2019 (GMT -0600)
Joplin Regional

Weather History for KJLN - September, 2019

Change the Weather History Date:

Sunday, September 8, 2019

  Actual Average Record
Temperature  
Mean Temperature 82 °F 74 °F  
Max Temperature 90 °F 86 °F 98 °F (1955)
Min Temperature 73 °F 63 °F 45 °F (1956)
Degree Days  
Heating Degree Days 0 0  
Month to date heating degree days 0 0  
Since 1 July heating degree days 0 1  
Cooling Degree Days 16 9  
Month to date cooling degree days 117 84  
Year to date cooling degree days 1368 1511  
Growing Degree Days 32 (Base 50)    
Moisture  
Dew Point 69 °F    
Average Humidity 68    
Maximum Humidity 84    
Minimum Humidity 50    
Precipitation  
Precipitation 0.00 in 0.15 in 5.20 in (2007)
Month to date precipitation 0.00 1.26  
Year to date precipitation 48.89 32.23  
Sea Level Pressure  
Sea Level Pressure 29.92 in    
Wind  
Wind Speed 8 mph ()    
Max Wind Speed 15 mph    
Max Gust Speed 22 mph    
Visibility 10.0 miles    
Events      
T = Trace of Precipitation, MM = Missing Value Source: Averaged Metar Reports

Daily Weather History Graph

Daily Weather History Graph

Search for Another Location

Airport or City:

Astronomy

Sep. 08, 2019 Rise Set
Actual Time 6:54 AM CDT 7:36 PM CDT
Civil Twilight 6:27 AM CDT 8:02 PM CDT
Nautical Twilight 5:56 AM CDT 8:33 PM CDT
Astronomical Twilight 5:24 AM CDT 9:05 PM CDT
Moon 4:39 PM CDT (9/8) 1:41 AM CDT (9/8)
Length of Visible Light 13h 34m
Length of Day
12h 42m
Waxing Gibbous, 75% of the Moon is Illuminated
Sep 8
Waxing Gibbous
Sep 13
Full
Sep 21
Last Quarter
Sep 28
New
Oct 5
First Quarter

Hourly Weather History & Observations

Time (CDT) Temp. Heat Index Dew Point Humidity Pressure Visibility Wind Dir Wind Speed Gust Speed Precip Events Conditions
12:53 AM 77.0 °F - 69.1 °F 76% 29.89 in 10.0 mi South 9.2 mph - N/A   Clear
1:53 AM 75.9 °F - 69.1 °F 79% 29.88 in 10.0 mi South 8.1 mph - N/A   Clear
2:53 AM 75.0 °F - 69.1 °F 82% 29.88 in 10.0 mi South 8.1 mph - N/A   Clear
3:53 AM 75.9 °F - 70.0 °F 82% 29.87 in 10.0 mi South 10.4 mph - N/A   Clear
4:53 AM 75.9 °F - 69.1 °F 79% 29.87 in 10.0 mi South 11.5 mph - N/A   Clear
5:53 AM 75.9 °F - 69.1 °F 79% 29.88 in 10.0 mi South 9.2 mph - N/A   Clear
6:53 AM 75.0 °F - 68.0 °F 79% 29.90 in 10.0 mi South 8.1 mph - N/A   Clear
7:53 AM 75.0 °F - 70.0 °F 84% 29.97 in 9.0 mi North 13.8 mph 20.7 mph N/A   Partly Cloudy
8:53 AM 78.1 °F - 71.1 °F 79% 29.99 in 10.0 mi NNW 6.9 mph - N/A   Clear
9:53 AM 80.1 °F 83.6 °F 71.1 °F 74% 29.99 in 10.0 mi ESE 4.6 mph - N/A   Clear
10:53 AM 82.9 °F 87.0 °F 70.0 °F 65% 29.98 in 10.0 mi SSE 4.6 mph - N/A   Clear
11:53 AM 84.9 °F 90.1 °F 71.1 °F 63% 29.97 in 10.0 mi SSE 6.9 mph - N/A   Clear
12:53 PM 88.0 °F 94.7 °F 72.0 °F 59% 29.96 in 10.0 mi South 6.9 mph - N/A   Clear
1:53 PM 90.0 °F 96.4 °F 71.1 °F 54% 29.95 in 10.0 mi South 9.2 mph - N/A   Clear
2:53 PM 90.0 °F 94.5 °F 69.1 °F 50% 29.93 in 10.0 mi South 11.5 mph - N/A   Clear
3:53 PM 90.0 °F 95.4 °F 70.0 °F 52% 29.91 in 10.0 mi South 9.2 mph - N/A   Clear
4:53 PM 87.1 °F 91.3 °F 69.1 °F 55% 29.91 in 10.0 mi South 12.7 mph - N/A   Clear
5:53 PM 86.0 °F 89.4 °F 68.0 °F 55% 29.90 in 10.0 mi South 10.4 mph - N/A   Clear
6:53 PM 84.0 °F 87.8 °F 69.1 °F 61% 29.90 in 10.0 mi SSE 9.2 mph - N/A   Clear
7:53 PM 82.0 °F 84.5 °F 66.9 °F 60% 29.91 in 10.0 mi SSE 8.1 mph - N/A   Clear
8:53 PM 82.0 °F 84.1 °F 66.0 °F 58% 29.91 in 10.0 mi SE 8.1 mph - N/A   Clear
9:53 PM 80.1 °F 82.7 °F 68.0 °F 67% 29.93 in 10.0 mi SSE 8.1 mph - N/A   Clear
10:53 PM 79.0 °F - 66.9 °F 66% 29.94 in 10.0 mi SSE 8.1 mph - N/A   Clear
11:53 PM 79.0 °F - 66.9 °F 66% 29.94 in 10.0 mi SSE 10.4 mph - N/A   Clear